Regional Weather Roundup
Issued by NWS State College, PA

Home | Current Version | Previous Version | Text Only | Print | Product List | Glossary Off
Versions: 1 2 3 4 5 6 7 8 9 10 11 12 13 14 15 16 17 18 19 20 21 22 23 24 25 26 27 28 29 30 31 32 33 34 35 36 37 38 39 40 41 42 43 44 45 46 47 48 49 50

000
ASUS41 KCTP 221003
RWRCTP

REGIONAL WEATHER ROUNDUP
NATIONAL WEATHER SERVICE STATE COLLEGE PA
500 AM EST MON DEC 22 2014

Note: "fair" indicates few or no clouds below 12,000 feet with no
significant weather and/or obstructions to visibility.

* = STATION THAT DOES NOT REPORT PRECIPITATION /E.G. RAIN...SNOW...ETC/
    THUNDER OR FOG.

PAZ002>004-007>009-013>016-020>023-029>032-221100-
WESTERN PENNSYLVANIA

CITY           SKY/WX    TMP DP  RH WIND       PRES   REMARKS
ERIE           PTCLDY    27  19  72 CALM      30.15F
MEADVILLE      CLEAR     24  18  77 VRB5      30.11S
FRANKLIN*      CLEAR     21  18  86 E5        30.13S WCI  15
NEW CASTLE       N/A     22  20  92 CALM      30.13F
BEAVER COUNTY  NOT AVBL
BUTLER*        CLEAR     21  18  86 E7        30.12F WCI  13
PITTSBURGH INT PTCLDY    23  21  92 E5        30.10F
PITTSBURGH     CLEAR     26  19  74 E6        30.10F
INDIANA*       CLEAR     28  23  80 VRB3      30.17R
LATROBE        CLEAR     27  23  86 CALM      30.14S
WASHINGTON CO* NOT AVBL
$$

PAZ004>006-010>012-017>019-024>028-033>037-041-042-045-046-049>053-221100-
CENTRAL PENNSYLVANIA

CITY           SKY/WX    TMP DP  RH WIND       PRES   REMARKS
BRADFORD       CLEAR     20  16  84 SE8       30.12F WCI  10
DUBOIS         PTCLDY    21  19  92 E8        30.12F WCI  11
CLEARFIELD     PTCLDY    20  18  92 NE9       30.18F WCI   9
JOHNSTOWN      CLEAR     23  19  85 S3        30.10F
ALTOONA        CLOUDY    21  19  92 CALM      30.19F
STATE COLLEGE  PTCLDY    21  19  93 N3        30.22F
WILLIAMSPORT   PTCLDY    21  16  81 CALM      30.28F
SELINSGROVE    PTCLDY    19  15  84 CALM      30.29F FOG
FT INDIANTOWN  CLEAR     19  17  91 CALM      30.29F
CAPITAL CITY   CLEAR     22  17  81 CALM      30.29F
HARRISBURG     PTCLDY    21  18  88 E3        30.28F
YORK           CLEAR     17  14  88 CALM      30.27F
$$

PAZ038>040-043-044-047-048-054-055-060>062-067>071-221100-
EASTERN PENNSYLVANIA

CITY           SKY/WX    TMP DP  RH WIND       PRES   REMARKS
SCRANTON       CLOUDY    31  22  69 E3        30.26F
MOUNT POCONO   CLOUDY    26  24  92 E5        30.21F
ALLENTOWN      CLOUDY    30  24  78 CALM      30.30F
QUAKERTOWN*    CLOUDY    28  27  93 CALM      30.30S
READING        PTCLDY    21  17  84 CALM      30.29F
LANCASTER      PTCLDY    21  18  88 CALM      30.29F FOG
COATESVILLE    MOSUNNY   27  23  86 CALM      30.28F
POTTSTOWN      CLOUDY    25  21  85 CALM      30.31F
BLUE BELL      CLOUDY    30  27  86 CALM      30.29F
DOYLESTOWN     CLOUDY    31  26  82 CALM      30.29F
WILLOW GROVE   NOT AVBL
NORTH PHILA    CLOUDY    35  25  66 N5        30.32F
PHILADELPHIA   MOCLDY    29  23  78 NW6       30.32F
$$


USA.gov is the U.S. government's official web portal to all federal, state and local government web resources and services.